Private Wetterstation Wechselburg
Wetterdaten: Dienstag, 05.04.2011
Datum Zeit Temp. +2m Bodentemp. Temp.+5cm Temp. Wind Windchill X Diff Temp. Feuchte +2m Feuchte +5cm Sonnenschein Luftdruck Regen Wind Richtung Richtung Sonnenschein UV Taupunkt Windchill Windben
05.04.2011 00:00 9,2 C 13,0 C 8,4 C 8,6 C 7,5 C 0,0 C 81 % 85 % 0 % 1022,1 hPa 0,0 l/m 3,9 km/h (1 Bft) SW 225 0 min 0,0 UV-I 6,1 C 7,5 C 4,8 km/h (1 Bft)
05.04.2011 00:08 9,2 C 13,0 C 8,4 C 8,6 C 7,4 C 0,0 C 81 % 85 % 0 % 1022,1 hPa 0,0 l/m 4,3 km/h (1 Bft) N 0 0 min 0,0 UV-I 6,1 C 7,4 C 6,4 km/h (2 Bft)
05.04.2011 00:15 9,2 C 13,0 C 8,2 C 8,7 C 7,7 C 0,0 C 81 % 85 % 0 % 1021,9 hPa 0,0 l/m 3,7 km/h (1 Bft) SW 225 0 min 0,0 UV-I 6,1 C 7,7 C 4,8 km/h (1 Bft)
05.04.2011 00:20 9,1 C 13,0 C 8,2 C 8,6 C 7,6 C 0,0 C 81 % 86 % 0 % 1021,9 hPa 0,0 l/m 3,5 km/h (1 Bft) S-SW 202 0 min 0,0 UV-I 6,0 C 7,6 C 5,1 km/h (1 Bft)
05.04.2011 00:25 9,1 C 13,0 C 8,1 C 8,6 C 7,6 C 0,0 C 81 % 86 % 0 % 1021,9 hPa 0,0 l/m 3,4 km/h (1 Bft) S-SW 202 0 min 0,0 UV-I 6,0 C 7,6 C 2,4 km/h (1 Bft)
05.04.2011 00:30 9,1 C 13,0 C 8,0 C 8,5 C 7,4 C 0,0 C 81 % 86 % 0 % 1021,9 hPa 0,0 l/m 2,3 km/h (1 Bft) W 270 0 min 0,0 UV-I 6,0 C 7,4 C 2,3 km/h (1 Bft)
05.04.2011 00:35 8,9 C 13,0 C 7,9 C 8,3 C 7,2 C 0,0 C 81 % 86 % 0 % 1022,4 hPa 0,0 l/m 1,9 km/h (1 Bft) SW 225 0 min 0,0 UV-I 5,8 C 7,2 C 3,1 km/h (1 Bft)
05.04.2011 00:40 8,9 C 13,0 C 7,9 C 8,3 C 7,2 C 0,0 C 81 % 86 % 0 % 1022,4 hPa 0,0 l/m 2,9 km/h (1 Bft) SW 225 0 min 0,0 UV-I 5,8 C 7,2 C 4,5 km/h (1 Bft)
05.04.2011 00:45 8,9 C 12,9 C 8,1 C 8,3 C 7,1 C 0,0 C 81 % 86 % 0 % 1022,4 hPa 0,0 l/m 4,5 km/h (1 Bft) SW 225 0 min 0,0 UV-I 5,8 C 7,1 C 7,2 km/h (2 Bft)
05.04.2011 00:50 8,9 C 12,9 C 8,0 C 8,3 C 7,2 C 0,0 C 81 % 86 % 0 % 1022,4 hPa 0,0 l/m 4,3 km/h (1 Bft) SW 225 0 min 0,0 UV-I 5,8 C 7,2 C 5,0 km/h (1 Bft)
05.04.2011 00:55 8,8 C 12,9 C 7,9 C 8,3 C 7,3 C 0,0 C 81 % 86 % 0 % 1022,3 hPa 0,0 l/m 2,7 km/h (1 Bft) SO 135 0 min 0,0 UV-I 5,7 C 7,3 C 0,0 km/h (0 Bft)
05.04.2011 01:00 8,7 C 12,9 C 7,9 C 8,2 C 7,1 C 0,0 C 81 % 86 % 0 % 1022,3 hPa 0,0 l/m 1,6 km/h (1 Bft) SO 135 0 min 0,0 UV-I 5,6 C 7,1 C 0,0 km/h (0 Bft)
05.04.2011 01:09 8,4 C 13,0 C 7,5 C 7,8 C 6,6 C 0,0 C 82 % 86 % 0 % 1022,3 hPa 0,0 l/m 0,2 km/h (0 Bft) N 0 0 min 0,0 UV-I 5,5 C 6,6 C 0,0 km/h (0 Bft)
05.04.2011 01:10 8,4 C 13,0 C 7,5 C 7,8 C 6,6 C 0,0 C 82 % 86 % 0 % 1022,3 hPa 0,0 l/m 0,2 km/h (0 Bft) O-NO 67 0 min 0,0 UV-I 5,5 C 6,6 C 0,0 km/h (0 Bft)
05.04.2011 01:15 8,3 C 13,0 C 7,4 C 7,7 C 6,4 C 0,0 C 82 % 86 % 0 % 1022,4 hPa 0,0 l/m 0,0 km/h (0 Bft) W-NW 292 0 min 0,0 UV-I 5,4 C 6,4 C 0,0 km/h (0 Bft)
05.04.2011 01:20 8,3 C 13,0 C 7,3 C 7,6 C 6,2 C 0,0 C 82 % 86 % 0 % 1022,4 hPa 0,0 l/m 0,2 km/h (0 Bft) S 180 0 min 0,0 UV-I 5,4 C 6,2 C 1,8 km/h (1 Bft)
05.04.2011 01:25 8,3 C 13,0 C 7,2 C 7,6 C 6,1 C 0,0 C 82 % 87 % 0 % 1022,4 hPa 0,0 l/m 0,2 km/h (0 Bft) O-SO 112 0 min 0,0 UV-I 5,4 C 6,1 C 2,6 km/h (1 Bft)
05.04.2011 01:30 8,2 C 13,0 C 7,1 C 7,5 C 6,1 C 0,0 C 82 % 87 % 0 % 1022,4 hPa 0,0 l/m 0,2 km/h (0 Bft) O-NO 67 0 min 0,0 UV-I 5,3 C 6,1 C 0,0 km/h (0 Bft)
05.04.2011 01:35 8,0 C 13,1 C 7,1 C 7,4 C 6,1 C 0,0 C 83 % 87 % 0 % 1022,6 hPa 0,0 l/m 0,2 km/h (0 Bft) O-NO 67 0 min 0,0 UV-I 5,3 C 6,1 C 0,0 km/h (0 Bft)
05.04.2011 01:40 8,0 C 13,0 C 7,0 C 7,3 C 6,0 C 0,0 C 83 % 87 % 0 % 1022,6 hPa 0,0 l/m 0,0 km/h (0 Bft) SO 135 0 min 0,0 UV-I 5,3 C 6,0 C 0,0 km/h (0 Bft)
05.04.2011 01:45 8,0 C 13,0 C 7,1 C 7,3 C 5,9 C 0,0 C 83 % 87 % 0 % 1022,6 hPa 0,0 l/m 0,0 km/h (0 Bft) O-NO 67 0 min 0,0 UV-I 5,3 C 5,9 C 0,0 km/h (0 Bft)
05.04.2011 01:50 8,0 C 13,0 C 7,1 C 7,3 C 5,9 C 0,0 C 83 % 87 % 0 % 1022,6 hPa 0,0 l/m 0,0 km/h (0 Bft) O-NO 67 0 min 0,0 UV-I 5,3 C 5,9 C 1,6 km/h (1 Bft)
05.04.2011 01:55 8,1 C 13,0 C 6,9 C 7,5 C 6,2 C 0,0 C 83 % 88 % 0 % 1022,4 hPa 0,0 l/m 0,6 km/h (0 Bft) O-NO 67 0 min 0,0 UV-I 5,4 C 6,2 C 0,0 km/h (0 Bft)
05.04.2011 02:00 8,1 C 13,0 C 7,0 C 7,5 C 6,4 C 0,0 C 83 % 88 % 0 % 1022,4 hPa 0,0 l/m 0,6 km/h (0 Bft) O-NO 67 0 min 0,0 UV-I 5,4 C 6,4 C 0,0 km/h (0 Bft)
05.04.2011 02:09 8,0 C 13,0 C 7,0 C 7,5 C 6,6 C 0,0 C 83 % 88 % 0 % 1022,4 hPa 0,0 l/m 0,0 km/h (0 Bft) N 0 0 min 0,0 UV-I 5,3 C 6,6 C 0,0 km/h (0 Bft)
05.04.2011 02:15 8,1 C 13,0 C 7,1 C 7,6 C 6,6 C 0,0 C 84 % 88 % 0 % 1022,7 hPa 0,0 l/m 0,0 km/h (0 Bft) O-NO 67 0 min 0,0 UV-I 5,6 C 6,6 C 0,0 km/h (0 Bft)
05.04.2011 02:20 8,0 C 12,9 C 7,1 C 7,5 C 6,5 C 0,0 C 84 % 88 % 0 % 1022,7 hPa 0,0 l/m 0,0 km/h (0 Bft) S-SW 202 0 min 0,0 UV-I 5,5 C 6,5 C 0,0 km/h (0 Bft)
05.04.2011 02:25 8,1 C 12,9 C 6,9 C 7,5 C 6,4 C 0,0 C 84 % 88 % 0 % 1022,7 hPa 0,0 l/m 0,0 km/h (0 Bft) O-SO 112 0 min 0,0 UV-I 5,6 C 6,4 C 0,0 km/h (0 Bft)
05.04.2011 02:30 8,0 C 12,9 C 6,9 C 7,4 C 6,2 C 0,0 C 83 % 88 % 0 % 1022,7 hPa 0,0 l/m 0,0 km/h (0 Bft) N-NO 22 0 min 0,0 UV-I 5,3 C 6,2 C 0,0 km/h (0 Bft)
05.04.2011 02:35 7,9 C 12,9 C 6,8 C 7,2 C 5,9 C 0,0 C 83 % 88 % 0 % 1023,4 hPa 0,0 l/m 0,0 km/h (0 Bft) O-NO 67 0 min 0,0 UV-I 5,2 C 5,9 C 0,0 km/h (0 Bft)
05.04.2011 02:40 7,9 C 12,9 C 6,7 C 7,2 C 5,9 C 0,0 C 83 % 88 % 0 % 1023,4 hPa 0,0 l/m 0,0 km/h (0 Bft) O-NO 67 0 min 0,0 UV-I 5,2 C 5,9 C 0,0 km/h (0 Bft)
05.04.2011 02:45 7,7 C 12,9 C 6,6 C 7,0 C 5,7 C 0,0 C 84 % 88 % 0 % 1023,4 hPa 0,0 l/m 0,0 km/h (0 Bft) O 90 0 min 0,0 UV-I 5,2 C 5,7 C 0,0 km/h (0 Bft)
05.04.2011 02:50 7,7 C 12,9 C 6,7 C 7,1 C 5,8 C 0,0 C 84 % 88 % 0 % 1023,4 hPa 0,0 l/m 0,0 km/h (0 Bft) S 180 0 min 0,0 UV-I 5,2 C 5,8 C 0,0 km/h (0 Bft)
05.04.2011 02:55 7,7 C 12,8 C 6,7 C 7,1 C 5,9 C 0,0 C 84 % 88 % 0 % 1022,6 hPa 0,0 l/m 0,0 km/h (0 Bft) O-SO 112 0 min 0,0 UV-I 5,2 C 5,9 C 0,0 km/h (0 Bft)
05.04.2011 03:00 7,8 C 12,8 C 6,7 C 7,2 C 5,9 C 0,0 C 84 % 88 % 0 % 1022,6 hPa 0,0 l/m 0,0 km/h (0 Bft) NO 45 0 min 0,0 UV-I 5,3 C 5,9 C 0,0 km/h (0 Bft)
05.04.2011 03:09 7,9 C 12,7 C 6,8 C 7,3 C 6,0 C 0,0 C 84 % 89 % 0 % 1022,6 hPa 0,0 l/m 0,0 km/h (0 Bft) N 0 0 min 0,0 UV-I 5,4 C 6,0 C 0,0 km/h (0 Bft)
05.04.2011 03:15 7,9 C 12,7 C 6,9 C 7,3 C 6,1 C 0,0 C 84 % 89 % 0 % 1022,5 hPa 0,0 l/m 0,2 km/h (0 Bft) O-NO 67 0 min 0,0 UV-I 5,4 C 6,1 C 0,0 km/h (0 Bft)
05.04.2011 03:20 7,9 C 12,7 C 6,9 C 7,3 C 6,2 C 0,0 C 84 % 89 % 0 % 1022,5 hPa 0,0 l/m 0,2 km/h (0 Bft) S 180 0 min 0,0 UV-I 5,4 C 6,2 C 0,0 km/h (0 Bft)
05.04.2011 03:25 7,9 C 12,7 C 6,9 C 7,3 C 6,2 C 0,0 C 84 % 89 % 0 % 1022,5 hPa 0,0 l/m 0,3 km/h (0 Bft) N-NO 22 0 min 0,0 UV-I 5,4 C 6,2 C 0,0 km/h (0 Bft)
05.04.2011 03:30 7,9 C 12,7 C 6,9 C 7,3 C 6,2 C 0,0 C 84 % 88 % 0 % 1022,5 hPa 0,0 l/m 0,3 km/h (0 Bft) O-NO 67 0 min 0,0 UV-I 5,4 C 6,2 C 0,0 km/h (0 Bft)
05.04.2011 03:35 7,7 C 12,7 C 6,8 C 7,1 C 6,0 C 0,0 C 84 % 88 % 0 % 1022,6 hPa 0,0 l/m 0,0 km/h (0 Bft) S-SO 157 0 min 0,0 UV-I 5,2 C 6,0 C 0,0 km/h (0 Bft)
05.04.2011 03:40 7,7 C 12,7 C 6,7 C 7,1 C 5,9 C 0,0 C 83 % 88 % 0 % 1022,6 hPa 0,0 l/m 0,2 km/h (0 Bft) O 90 0 min 0,0 UV-I 5,0 C 5,9 C 0,0 km/h (0 Bft)
05.04.2011 03:45 7,6 C 12,7 C 6,7 C 7,0 C 5,8 C 0,0 C 84 % 88 % 0 % 1022,6 hPa 0,0 l/m 0,2 km/h (0 Bft) W 270 0 min 0,0 UV-I 5,1 C 5,8 C 0,0 km/h (0 Bft)
05.04.2011 03:50 7,6 C 12,6 C 6,7 C 6,9 C 5,6 C 0,0 C 84 % 88 % 0 % 1022,6 hPa 0,0 l/m 0,0 km/h (0 Bft) N-NW 337 0 min 0,0 UV-I 5,1 C 5,6 C 0,0 km/h (0 Bft)
05.04.2011 03:55 7,6 C 12,6 C 6,7 C 6,9 C 5,6 C 0,0 C 84 % 88 % 0 % 1022,8 hPa 0,0 l/m 0,0 km/h (0 Bft) O-NO 67 0 min 0,0 UV-I 5,1 C 5,6 C 0,0 km/h (0 Bft)
05.04.2011 04:00 7,6 C 12,6 C 6,6 C 7,0 C 5,7 C 0,0 C 84 % 88 % 0 % 1022,8 hPa 0,0 l/m 0,0 km/h (0 Bft) O 90 0 min 0,0 UV-I 5,1 C 5,7 C 0,0 km/h (0 Bft)
05.04.2011 04:09 7,6 C 12,6 C 6,7 C 7,1 C 6,0 C 0,0 C 84 % 89 % 0 % 1022,8 hPa 0,0 l/m 0,0 km/h (0 Bft) N 0 0 min 0,0 UV-I 5,1 C 6,0 C 0,0 km/h (0 Bft)
05.04.2011 04:10 7,6 C 12,6 C 6,7 C 7,1 C 6,0 C 0,0 C 84 % 89 % 0 % 1022,8 hPa 0,0 l/m 0,0 km/h (0 Bft) O 90 0 min 0,0 UV-I 5,1 C 6,0 C 0,0 km/h (0 Bft)
05.04.2011 04:15 7,7 C 12,6 C 6,7 C 7,2 C 6,1 C 0,0 C 84 % 88 % 0 % 1022,8 hPa 0,0 l/m 0,0 km/h (0 Bft) O 90 0 min 0,0 UV-I 5,2 C 6,1 C 0,0 km/h (0 Bft)
05.04.2011 04:20 7,5 C 12,6 C 6,7 C 7,0 C 5,9 C 0,0 C 84 % 88 % 0 % 1022,8 hPa 0,0 l/m 0,0 km/h (0 Bft) O-NO 67 0 min 0,0 UV-I 5,0 C 5,9 C 0,0 km/h (0 Bft)
05.04.2011 04:25 7,4 C 12,6 C 6,7 C 6,9 C 5,9 C 0,0 C 84 % 88 % 0 % 1022,8 hPa 0,0 l/m 0,0 km/h (0 Bft) O-NO 67 0 min 0,0 UV-I 4,9 C 5,9 C 0,0 km/h (0 Bft)
05.04.2011 04:30 7,5 C 12,6 C 6,6 C 6,9 C 5,8 C 0,0 C 84 % 88 % 0 % 1022,8 hPa 0,0 l/m 0,0 km/h (0 Bft) O 90 0 min 0,0 UV-I 5,0 C 5,8 C 0,0 km/h (0 Bft)
05.04.2011 04:35 7,5 C 12,6 C 6,5 C 6,9 C 5,8 C 0,0 C 84 % 88 % 0 % 1023,1 hPa 0,0 l/m 0,0 km/h (0 Bft) O-NO 67 0 min 0,0 UV-I 5,0 C 5,8 C 0,0 km/h (0 Bft)
05.04.2011 04:40 7,4 C 12,6 C 6,4 C 6,8 C 5,6 C 0,0 C 84 % 88 % 0 % 1023,1 hPa 0,0 l/m 0,0 km/h (0 Bft) W-NW 292 0 min 0,0 UV-I 4,9 C 5,6 C 0,0 km/h (0 Bft)
05.04.2011 04:45 7,3 C 12,6 C 6,4 C 6,7 C 5,6 C 0,0 C 84 % 88 % 0 % 1023,1 hPa 0,0 l/m 0,0 km/h (0 Bft) O-NO 67 0 min 0,0 UV-I 4,8 C 5,6 C 0,0 km/h (0 Bft)
05.04.2011 04:50 7,3 C 12,6 C 6,3 C 6,7 C 5,6 C 0,0 C 84 % 88 % 0 % 1023,1 hPa 0,0 l/m 0,0 km/h (0 Bft) O-NO 67 0 min 0,0 UV-I 4,8 C 5,6 C 0,0 km/h (0 Bft)
05.04.2011 04:55 7,2 C 12,6 C 6,3 C 6,6 C 5,5 C 0,0 C 84 % 88 % 0 % 1022,9 hPa 0,0 l/m 0,0 km/h (0 Bft) O-NO 67 0 min 0,0 UV-I 4,7 C 5,5 C 0,0 km/h (0 Bft)
05.04.2011 05:00 7,2 C 12,6 C 6,3 C 6,6 C 5,4 C 0,0 C 84 % 88 % 0 % 1022,9 hPa 0,0 l/m 0,0 km/h (0 Bft) SO 135 0 min 0,0 UV-I 4,7 C 5,4 C 0,0 km/h (0 Bft)
05.04.2011 05:10 7,0 C 12,6 C 6,2 C 6,4 C 5,1 C 0,0 C 84 % 88 % 0 % 1022,9 hPa 0,0 l/m 0,0 km/h (0 Bft) N 0 0 min 0,0 UV-I 4,5 C 5,1 C 0,0 km/h (0 Bft)
05.04.2011 05:15 6,9 C 12,6 C 6,0 C 6,3 C 5,1 C 0,0 C 85 % 88 % 0 % 1022,9 hPa 0,0 l/m 0,0 km/h (0 Bft) S 180 0 min 0,0 UV-I 4,6 C 5,1 C 0,0 km/h (0 Bft)
05.04.2011 05:20 6,9 C 12,6 C 6,1 C 6,3 C 5,0 C 0,0 C 85 % 89 % 0 % 1022,9 hPa 0,0 l/m 0,0 km/h (0 Bft) S 180 0 min 0,0 UV-I 4,6 C 5,0 C 0,0 km/h (0 Bft)
05.04.2011 05:25 6,9 C 12,6 C 6,0 C 6,3 C 5,1 C 0,0 C 85 % 89 % 0 % 1022,9 hPa 0,0 l/m 0,0 km/h (0 Bft) S-SW 202 0 min 0,0 UV-I 4,6 C 5,1 C 0,0 km/h (0 Bft)
05.04.2011 05:30 6,9 C 12,6 C 6,0 C 6,4 C 5,3 C 0,0 C 85 % 89 % 0 % 1022,9 hPa 0,0 l/m 0,0 km/h (0 Bft) O-SO 112 0 min 0,0 UV-I 4,6 C 5,3 C 0,0 km/h (0 Bft)
05.04.2011 05:35 7,1 C 12,4 C 6,1 C 6,5 C 5,4 C 0,0 C 85 % 89 % 0 % 1023,2 hPa 0,0 l/m 0,0 km/h (0 Bft) O-NO 67 0 min 0,0 UV-I 4,8 C 5,4 C 0,0 km/h (0 Bft)
05.04.2011 05:40 7,1 C 12,4 C 6,1 C 6,6 C 5,6 C 0,0 C 85 % 89 % 0 % 1023,2 hPa 0,0 l/m 0,0 km/h (0 Bft) O-SO 112 0 min 0,0 UV-I 4,8 C 5,6 C 0,0 km/h (0 Bft)
05.04.2011 05:45 7,1 C 12,4 C 6,3 C 6,6 C 5,6 C 0,0 C 85 % 89 % 0 % 1023,2 hPa 0,0 l/m 0,0 km/h (0 Bft) SO 135 0 min 0,0 UV-I 4,8 C 5,6 C 0,0 km/h (0 Bft)
05.04.2011 05:50 7,0 C 12,4 C 6,3 C 6,5 C 5,6 C 0,0 C 85 % 89 % 0 % 1023,2 hPa 0,0 l/m 0,0 km/h (0 Bft) O-NO 67 0 min 0,0 UV-I 4,7 C 5,6 C 0,0 km/h (0 Bft)
05.04.2011 05:55 7,0 C 12,4 C 6,3 C 6,5 C 5,4 C 0,0 C 85 % 89 % 0 % 1023,1 hPa 0,0 l/m 0,2 km/h (0 Bft) O-NO 67 0 min 0,0 UV-I 4,7 C 5,4 C 0,0 km/h (0 Bft)
05.04.2011 06:00 6,8 C 12,4 C 6,1 C 6,3 C 5,3 C 0,0 C 85 % 88 % 0 % 1023,1 hPa 0,0 l/m 0,2 km/h (0 Bft) NO 45 0 min 0,0 UV-I 4,5 C 5,3 C 0,0 km/h (0 Bft)
05.04.2011 06:10 6,7 C 12,5 C 5,8 C 6,0 C 4,5 C 0,0 C 85 % 88 % 0 % 1023,1 hPa 0,0 l/m 0,0 km/h (0 Bft) N 0 0 min 0,0 UV-I 4,4 C 4,5 C 0,0 km/h (0 Bft)
05.04.2011 06:15 6,6 C 12,5 C 5,7 C 5,9 C 4,4 C 0,0 C 85 % 89 % 0 % 1023,3 hPa 0,0 l/m 0,0 km/h (0 Bft) O 90 0 min 0,0 UV-I 4,3 C 4,4 C 0,0 km/h (0 Bft)
05.04.2011 06:20 6,6 C 12,5 C 5,6 C 5,9 C 4,4 C 0,0 C 85 % 89 % 0 % 1023,3 hPa 0,0 l/m 0,0 km/h (0 Bft) O 90 0 min 0,0 UV-I 4,3 C 4,4 C 0,0 km/h (0 Bft)
05.04.2011 06:25 6,4 C 12,5 C 5,6 C 5,7 C 4,3 C 0,0 C 85 % 89 % 0 % 1023,3 hPa 0,0 l/m 0,0 km/h (0 Bft) NO 45 0 min 0,0 UV-I 4,1 C 4,3 C 0,0 km/h (0 Bft)
05.04.2011 06:30 6,4 C 12,5 C 5,5 C 5,6 C 4,1 C 0,0 C 85 % 89 % 0 % 1023,3 hPa 0,0 l/m 0,0 km/h (0 Bft) O-SO 112 0 min 0,0 UV-I 4,1 C 4,1 C 0,0 km/h (0 Bft)
05.04.2011 06:35 6,5 C 12,5 C 5,5 C 5,7 C 4,1 C 0,0 C 86 % 89 % 0 % 1023,1 hPa 0,0 l/m 0,0 km/h (0 Bft) S-SW 202 0 min 0,0 UV-I 4,3 C 4,1 C 0,0 km/h (0 Bft)
05.04.2011 06:40 6,4 C 12,5 C 5,5 C 5,7 C 4,2 C 0,0 C 86 % 89 % 0 % 1023,1 hPa 0,0 l/m 0,0 km/h (0 Bft) S-SO 157 0 min 0,0 UV-I 4,2 C 4,2 C 0,0 km/h (0 Bft)
05.04.2011 06:45 6,5 C 12,5 C 5,4 C 5,8 C 4,3 C 0,0 C 86 % 89 % 0 % 1023,1 hPa 0,0 l/m 0,0 km/h (0 Bft) S-SO 157 0 min 0,0 UV-I 4,3 C 4,3 C 0,0 km/h (0 Bft)
05.04.2011 06:50 6,5 C 12,4 C 5,4 C 5,9 C 4,6 C 0,0 C 86 % 89 % 0 % 1023,1 hPa 0,0 l/m 0,0 km/h (0 Bft) O-SO 112 0 min 0,0 UV-I 4,3 C 4,6 C 0,0 km/h (0 Bft)
05.04.2011 06:55 6,7 C 12,4 C 5,4 C 6,2 C 5,1 C 0,0 C 86 % 89 % 0 % 1024,2 hPa 0,0 l/m 0,0 km/h (0 Bft) O 90 0 min 0,0 UV-I 4,5 C 5,1 C 0,0 km/h (0 Bft)
05.04.2011 07:00 6,9 C 12,3 C 5,4 C 6,4 C 5,3 C 0,0 C 86 % 89 % 0 % 1024,2 hPa 0,0 l/m 0,0 km/h (0 Bft) S-SW 202 0 min 0,0 UV-I 4,7 C 5,3 C 0,0 km/h (0 Bft)
05.04.2011 07:10 7,4 C 12,1 C 5,4 C 6,9 C 6,0 C 0,0 C 85 % 89 % 0 % 1024,2 hPa 0,0 l/m 0,0 km/h (0 Bft) N 0 0 min 0,0 UV-I 5,0 C 6,0 C 0,0 km/h (0 Bft)
05.04.2011 07:15 7,4 C 12,0 C 5,4 C 7,0 C 6,2 C 0,0 C 84 % 89 % 0 % 1023,4 hPa 0,0 l/m 0,0 km/h (0 Bft) S-SW 202 0 min 0,0 UV-I 4,9 C 6,2 C 0,0 km/h (0 Bft)
05.04.2011 07:20 7,3 C 12,0 C 5,4 C 6,9 C 6,2 C 0,0 C 84 % 89 % 0 % 1023,4 hPa 0,0 l/m 0,0 km/h (0 Bft) NO 45 0 min 0,0 UV-I 4,8 C 6,2 C 0,0 km/h (0 Bft)
05.04.2011 07:25 7,2 C 12,0 C 5,4 C 6,9 C 6,2 C 0,0 C 84 % 89 % 0 % 1023,4 hPa 0,0 l/m 0,0 km/h (0 Bft) S 180 0 min 0,0 UV-I 4,7 C 6,2 C 0,0 km/h (0 Bft)
05.04.2011 07:30 7,3 C 12,0 C 5,4 C 6,9 C 6,0 C 0,0 C 84 % 89 % 0 % 1023,4 hPa 0,0 l/m 0,3 km/h (0 Bft) O-NO 67 0 min 0,0 UV-I 4,8 C 6,0 C 0,0 km/h (0 Bft)
05.04.2011 07:35 7,3 C 12,0 C 5,4 C 6,9 C 6,0 C 0,0 C 84 % 89 % 0 % 1023,4 hPa 0,0 l/m 1,0 km/h (0 Bft) SO 135 0 min 0,0 UV-I 4,8 C 6,0 C 1,8 km/h (1 Bft)
05.04.2011 07:40 7,3 C 12,0 C 5,4 C 6,8 C 5,9 C 0,0 C 84 % 89 % 0 % 1023,4 hPa 0,0 l/m 0,6 km/h (0 Bft) SO 135 0 min 0,0 UV-I 4,8 C 5,9 C 0,0 km/h (0 Bft)
05.04.2011 07:45 7,3 C 12,0 C 5,4 C 6,8 C 5,8 C 0,0 C 84 % 89 % 0 % 1023,4 hPa 0,0 l/m 0,2 km/h (0 Bft) O-NO 67 0 min 0,0 UV-I 4,8 C 5,8 C 0,0 km/h (0 Bft)
05.04.2011 07:50 7,5 C 12,0 C 5,4 C 7,0 C 5,9 C 0,0 C 84 % 89 % 0 % 1023,4 hPa 0,0 l/m 0,2 km/h (0 Bft) S 180 0 min 0,0 UV-I 5,0 C 5,9 C 0,0 km/h (0 Bft)
05.04.2011 07:55 8,1 C 12,0 C 6,3 C 7,7 C 6,8 C 0,0 C 83 % 89 % 0 % 1023,6 hPa 0,0 l/m 0,0 km/h (0 Bft) SO 135 0 min 0,0 UV-I 5,4 C 6,8 C 1,6 km/h (1 Bft)
05.04.2011 08:00 8,1 C 12,0 C 6,3 C 7,9 C 7,5 C 0,0 C 83 % 89 % 0 % 1023,6 hPa 0,0 l/m 0,6 km/h (0 Bft) S-SO 157 0 min 0,0 UV-I 5,4 C 7,5 C 0,0 km/h (0 Bft)
05.04.2011 08:10 8,2 C 12,0 C 6,9 C 9,0 C 9,0 C 0,8 C 82 % 88 % 21 % 1023,6 hPa 0,0 l/m 1,8 km/h (1 Bft) N 0 0 min 0,0 UV-I 5,3 C 9,0 C 0,0 km/h (0 Bft)
05.04.2011 08:15 8,2 C 11,9 C 7,2 C 9,9 C 9,9 C 1,7 C 82 % 87 % 45 % 1023,7 hPa 0,0 l/m 2,1 km/h (1 Bft) SO 135 0 min 0,0 UV-I 5,3 C 9,9 C 4,8 km/h (1 Bft)
05.04.2011 08:20 8,4 C 11,9 C 7,2 C 10,3 C 10,3 C 1,9 C 82 % 87 % 50 % 1023,7 hPa 0,0 l/m 2,3 km/h (1 Bft) SW 225 0 min 0,0 UV-I 5,5 C 10,3 C 2,4 km/h (1 Bft)
05.04.2011 08:25 8,5 C 11,9 C 7,2 C 10,7 C 10,7 C 2,2 C 81 % 87 % 58 % 1023,7 hPa 0,0 l/m 2,9 km/h (1 Bft) S 180 0 min 0,0 UV-I 5,4 C 10,7 C 0,0 km/h (0 Bft)
05.04.2011 08:30 8,7 C 11,9 C 7,6 C 11,0 C 11,0 C 2,3 C 81 % 86 % 61 % 1023,7 hPa 0,0 l/m 1,9 km/h (1 Bft) S 180 0 min 0,0 UV-I 5,6 C 11,0 C 0,0 km/h (0 Bft)
05.04.2011 08:35 8,8 C 11,9 C 7,9 C 12,0 C 12,0 C 3,2 C 81 % 86 % 84 % 1024,1 hPa 0,0 l/m 0,8 km/h (0 Bft) S-SO 157 5 min 0,1 UV-I 5,7 C 12,0 C 2,4 km/h (1 Bft)
05.04.2011 08:40 8,9 C 11,9 C 7,9 C 12,4 C 12,4 C 3,5 C 81 % 86 % 92 % 1024,1 hPa 0,0 l/m 1,3 km/h (1 Bft) SO 135 5 min 0,1 UV-I 5,8 C 12,4 C 5,6 km/h (1 Bft)
05.04.2011 08:45 9,2 C 11,8 C 7,9 C 12,9 C 12,9 C 3,7 C 80 % 86 % 97 % 1024,1 hPa 0,0 l/m 2,6 km/h (1 Bft) S-SO 157 5 min 0,1 UV-I 5,9 C 12,9 C 0,0 km/h (0 Bft)
05.04.2011 08:50 9,2 C 11,8 C 7,9 C 13,1 C 13,1 C 3,9 C 80 % 86 % 100 % 1024,1 hPa 0,0 l/m 1,8 km/h (1 Bft) S-SO 157 5 min 0,1 UV-I 5,9 C 13,1 C 0,0 km/h (0 Bft)
05.04.2011 08:55 9,5 C 11,7 C 7,9 C 12,9 C 12,9 C 3,4 C 80 % 86 % 89 % 1023,9 hPa 0,0 l/m 1,6 km/h (1 Bft) SO 135 5 min 0,2 UV-I 6,2 C 12,9 C 7,9 km/h (2 Bft)
05.04.2011 09:00 9,5 C 11,7 C 7,9 C 12,9 C 12,9 C 3,4 C 79 % 86 % 89 % 1023,9 hPa 0,0 l/m 2,4 km/h (1 Bft) S-SO 157 5 min 0,2 UV-I 6,0 C 12,9 C 6,6 km/h (2 Bft)
05.04.2011 09:10 9,8 C 11,7 C 7,9 C 13,2 C 13,2 C 3,4 C 78 % 86 % 89 % 1023,9 hPa 0,0 l/m 3,5 km/h (1 Bft) N 0 10 min 0,2 UV-I 6,1 C 13,2 C 9,0 km/h (2 Bft)
05.04.2011 09:15 9,9 C 11,7 C 7,9 C 13,1 C 13,1 C 3,2 C 78 % 86 % 84 % 1024,1 hPa 0,0 l/m 3,4 km/h (1 Bft) W-SW 247 0 min 0,3 UV-I 6,2 C 13,1 C 9,8 km/h (2 Bft)
05.04.2011 09:20 10,0 C 11,7 C 10,1 C 12,8 C 12,8 C 2,8 C 78 % 78 % 74 % 1024,1 hPa 0,0 l/m 3,7 km/h (1 Bft) SW 225 0 min 0,3 UV-I 6,3 C 12,8 C 11,7 km/h (2 Bft)
05.04.2011 09:25 10,2 C 11,7 C 10,5 C 12,7 C 12,7 C 2,5 C 77 % 78 % 66 % 1024,1 hPa 0,0 l/m 3,7 km/h (1 Bft) SW 225 0 min 0,4 UV-I 6,4 C 12,7 C 3,1 km/h (1 Bft)
05.04.2011 09:30 10,3 C 11,8 C 10,7 C 12,8 C 12,8 C 2,5 C 77 % 77 % 66 % 1024,1 hPa 0,0 l/m 4,0 km/h (1 Bft) S-SW 202 0 min 0,4 UV-I 6,4 C 12,8 C 8,0 km/h (2 Bft)
05.04.2011 09:35 10,4 C 11,7 C 10,6 C 13,1 C 13,1 C 2,7 C 77 % 76 % 71 % 1024,2 hPa 0,0 l/m 5,3 km/h (1 Bft) NW 315 0 min 0,4 UV-I 6,5 C 13,1 C 3,9 km/h (1 Bft)
05.04.2011 09:40 10,5 C 11,7 C 10,5 C 13,2 C 13,2 C 2,7 C 76 % 77 % 71 % 1024,2 hPa 0,0 l/m 6,9 km/h (2 Bft) O-NO 67 0 min 0,4 UV-I 6,5 C 13,2 C 16,3 km/h (3 Bft)
05.04.2011 09:45 10,6 C 11,7 C 10,5 C 13,2 C 13,2 C 2,6 C 76 % 77 % 68 % 1024,2 hPa 0,0 l/m 6,4 km/h (2 Bft) SW 225 0 min 0,5 UV-I 6,5 C 13,2 C 13,4 km/h (3 Bft)
05.04.2011 09:50 10,7 C 11,7 C 10,7 C 12,7 C 12,7 C 2,0 C 75 % 77 % 53 % 1024,2 hPa 0,0 l/m 7,4 km/h (2 Bft) S 180 0 min 0,5 UV-I 6,5 C 12,7 C 9,2 km/h (2 Bft)
05.04.2011 09:55 10,8 C 11,7 C 11,2 C 12,2 C 11,6 C 1,4 C 75 % 76 % 37 % 1025,1 hPa 0,0 l/m 9,2 km/h (2 Bft) SW 225 0 min 0,5 UV-I 6,5 C 11,6 C 15,8 km/h (3 Bft)
05.04.2011 10:00 10,9 C 11,7 C 11,1 C 11,8 C 11,4 C 0,9 C 75 % 75 % 24 % 1025,1 hPa 0,0 l/m 9,5 km/h (2 Bft) SW 225 0 min 0,5 UV-I 6,6 C 11,4 C 9,8 km/h (2 Bft)
05.04.2011 10:10 11,1 C 11,7 C 11,1 C 11,5 C 11,1 C 0,4 C 75 % 75 % 11 % 1025,1 hPa 0,0 l/m 8,9 km/h (2 Bft) N 0 0 min 0,6 UV-I 6,8 C 11,1 C 19,6 km/h (3 Bft)
05.04.2011 10:15 11,2 C 11,7 C 10,7 C 11,3 C 10,8 C 0,1 C 74 % 76 % 3 % 1024,6 hPa 0,0 l/m 12,1 km/h (2 Bft) SW 225 0 min 0,6 UV-I 6,7 C 10,8 C 22,2 km/h (4 Bft)
05.04.2011 10:20 11,3 C 11,7 C 10,7 C 11,5 C 11,2 C 0,2 C 74 % 76 % 5 % 1024,6 hPa 0,0 l/m 11,9 km/h (2 Bft) S-SW 202 0 min 0,6 UV-I 6,8 C 11,2 C 13,7 km/h (3 Bft)
05.04.2011 10:25 11,3 C 11,7 C 10,7 C 11,5 C 11,1 C 0,2 C 73 % 76 % 5 % 1024,6 hPa 0,0 l/m 11,1 km/h (2 Bft) S 180 0 min 0,6 UV-I 6,6 C 11,1 C 11,3 km/h (2 Bft)
05.04.2011 10:30 11,5 C 11,7 C 10,7 C 11,6 C 11,3 C 0,1 C 74 % 76 % 3 % 1024,6 hPa 0,0 l/m 10,9 km/h (2 Bft) S 180 0 min 0,6 UV-I 7,0 C 11,3 C 10,9 km/h (2 Bft)
05.04.2011 10:35 11,6 C 11,8 C 10,7 C 12,0 C 11,9 C 0,4 C 73 % 76 % 11 % 1024,8 hPa 0,0 l/m 9,5 km/h (2 Bft) W-SW 247 0 min 0,7 UV-I 6,9 C 11,9 C 9,0 km/h (2 Bft)
05.04.2011 10:40 11,7 C 11,8 C 10,7 C 11,9 C 11,9 C 0,2 C 72 % 76 % 5 % 1024,8 hPa 0,0 l/m 9,5 km/h (2 Bft) S 180 0 min 0,7 UV-I 6,8 C 11,9 C 9,0 km/h (2 Bft)
05.04.2011 10:45 11,7 C 11,8 C 10,7 C 12,1 C 11,8 C 0,4 C 73 % 76 % 11 % 1024,8 hPa 0,0 l/m 9,3 km/h (2 Bft) SW 225 0 min 0,8 UV-I 7,0 C 11,8 C 7,4 km/h (2 Bft)
05.04.2011 10:50 12,0 C 11,8 C 10,7 C 12,4 C 12,4 C 0,4 C 72 % 76 % 11 % 1024,8 hPa 0,0 l/m 9,0 km/h (2 Bft) S-SW 202 0 min 0,8 UV-I 7,1 C 12,4 C 10,3 km/h (2 Bft)
05.04.2011 10:55 11,9 C 11,8 C 10,7 C 12,3 C 11,8 C 0,4 C 71 % 76 % 11 % 1024,8 hPa 0,0 l/m 10,8 km/h (2 Bft) SW 225 0 min 0,7 UV-I 6,8 C 11,8 C 16,9 km/h (3 Bft)
05.04.2011 11:00 12,0 C 11,9 C 10,7 C 12,0 C 11,6 C 0,0 C 72 % 76 % 0 % 1024,8 hPa 0,0 l/m 12,1 km/h (2 Bft) SW 225 0 min 0,7 UV-I 7,1 C 11,6 C 13,2 km/h (3 Bft)
05.04.2011 11:10 11,9 C 11,9 C 10,7 C 11,8 C 11,6 C 0,0 C 71 % 76 % 0 % 1024,8 hPa 0,0 l/m 9,0 km/h (2 Bft) N 0 0 min 0,7 UV-I 6,8 C 11,6 C 10,8 km/h (2 Bft)
05.04.2011 11:15 12,1 C 11,9 C 10,7 C 12,2 C 12,2 C 0,1 C 72 % 76 % 3 % 1024,9 hPa 0,0 l/m 8,2 km/h (2 Bft) SW 225 0 min 1,0 UV-I 7,2 C 12,2 C 10,1 km/h (2 Bft)
05.04.2011 11:20 12,2 C 11,9 C 10,7 C 12,5 C 12,3 C 0,3 C 71 % 76 % 8 % 1024,9 hPa 0,0 l/m 9,5 km/h (2 Bft) SW 225 0 min 1,0 UV-I 7,1 C 12,3 C 10,6 km/h (2 Bft)
05.04.2011 11:25 12,5 C 12,0 C 10,7 C 12,6 C 12,4 C 0,1 C 71 % 76 % 3 % 1024,9 hPa 0,0 l/m 9,3 km/h (2 Bft) S-SW 202 0 min 0,8 UV-I 7,4 C 12,4 C 11,9 km/h (2 Bft)
05.04.2011 11:30 12,7 C 11,9 C 10,7 C 13,4 C 13,7 C 0,7 C 71 % 76 % 18 % 1024,9 hPa 0,0 l/m 9,0 km/h (2 Bft) SW 225 0 min 0,8 UV-I 7,6 C 13,7 C 7,9 km/h (2 Bft)
05.04.2011 11:35 12,4 C 11,9 C 10,7 C 13,7 C 13,5 C 1,3 C 69 % 76 % 34 % 1024,9 hPa 0,0 l/m 9,5 km/h (2 Bft) SW 225 0 min 0,9 UV-I 6,9 C 13,5 C 14,6 km/h (3 Bft)
05.04.2011 11:40 12,4 C 11,9 C 10,7 C 13,3 C 12,9 C 0,9 C 70 % 76 % 24 % 1024,9 hPa 0,0 l/m 8,7 km/h (2 Bft) W-NW 292 0 min 0,9 UV-I 7,1 C 12,9 C 10,1 km/h (2 Bft)
05.04.2011 11:45 12,5 C 12,0 C 10,7 C 12,9 C 12,5 C 0,4 C 69 % 76 % 11 % 1024,9 hPa 0,0 l/m 9,8 km/h (2 Bft) SW 225 0 min 0,9 UV-I 7,0 C 12,5 C 18,2 km/h (3 Bft)
05.04.2011 11:50 12,4 C 12,0 C 10,7 C 12,5 C 12,1 C 0,1 C 69 % 76 % 3 % 1024,9 hPa 0,0 l/m 10,8 km/h (2 Bft) SW 225 0 min 0,9 UV-I 6,9 C 12,1 C 8,5 km/h (2 Bft)
05.04.2011 11:55 12,9 C 11,9 C 10,7 C 12,6 C 12,1 C 0,0 C 66 % 76 % 0 % 1024,6 hPa 0,0 l/m 13,4 km/h (3 Bft) SW 225 0 min 1,1 UV-I 6,7 C 12,1 C 23,5 km/h (4 Bft)
05.04.2011 12:00 13,1 C 12,0 C 10,7 C 13,0 C 12,9 C 0,0 C 67 % 76 % 0 % 1024,6 hPa 0,0 l/m 12,1 km/h (2 Bft) SW 225 0 min 1,1 UV-I 7,1 C 12,9 C 14,0 km/h (3 Bft)
05.04.2011 12:10 13,3 C 12,0 C 10,7 C 13,5 C 13,4 C 0,2 C 63 % 76 % 5 % 1024,6 hPa 0,0 l/m 12,2 km/h (2 Bft) N 0 0 min 1,1 UV-I 6,4 C 13,4 C 15,0 km/h (3 Bft)
05.04.2011 12:15 13,0 C 12,0 C 12,3 C 13,2 C 12,5 C 0,2 C 59 % 62 % 5 % 1025,6 hPa 0,0 l/m 14,6 km/h (3 Bft) SW 225 0 min 1,0 UV-I 5,2 C 12,5 C 12,2 km/h (2 Bft)
05.04.2011 12:20 13,1 C 12,0 C 12,7 C 13,0 C 12,3 C 0,0 C 61 % 65 % 0 % 1025,6 hPa 0,0 l/m 14,5 km/h (3 Bft) W-SW 247 0 min 1,0 UV-I 5,8 C 12,3 C 12,7 km/h (3 Bft)
05.04.2011 12:25 13,2 C 12,0 C 13,0 C 13,5 C 13,8 C 0,3 C 62 % 64 % 8 % 1025,6 hPa 0,0 l/m 9,7 km/h (2 Bft) W-SW 247 0 min 1,2 UV-I 6,1 C 13,8 C 10,9 km/h (2 Bft)
05.04.2011 12:30 13,5 C 12,0 C 13,3 C 14,5 C 14,8 C 1,0 C 62 % 62 % 26 % 1025,6 hPa 0,0 l/m 8,2 km/h (2 Bft) SW 225 0 min 1,2 UV-I 6,4 C 14,8 C 9,0 km/h (2 Bft)
05.04.2011 12:35 13,7 C 12,1 C 13,3 C 15,0 C 14,9 C 1,3 C 60 % 62 % 34 % 1025,2 hPa 0,0 l/m 10,0 km/h (2 Bft) S 180 0 min 1,3 UV-I 6,1 C 14,9 C 21,7 km/h (4 Bft)
05.04.2011 12:40 13,7 C 12,1 C 13,1 C 14,7 C 14,4 C 1,0 C 58 % 61 % 26 % 1025,2 hPa 0,0 l/m 10,9 km/h (2 Bft) SW 225 0 min 1,3 UV-I 5,6 C 14,4 C 8,0 km/h (2 Bft)
05.04.2011 12:45 13,7 C 12,1 C 13,2 C 14,8 C 14,7 C 1,1 C 59 % 62 % 29 % 1025,2 hPa 0,0 l/m 10,9 km/h (2 Bft) S-SW 202 0 min 1,4 UV-I 5,8 C 14,7 C 14,0 km/h (3 Bft)
05.04.2011 12:50 13,9 C 12,1 C 13,2 C 14,8 C 14,6 C 0,9 C 60 % 62 % 24 % 1025,2 hPa 0,0 l/m 10,1 km/h (2 Bft) W-SW 247 0 min 1,4 UV-I 6,3 C 14,6 C 9,7 km/h (2 Bft)
05.04.2011 12:55 14,0 C 12,1 C 13,2 C 14,7 C 14,4 C 0,7 C 57 % 60 % 18 % 1024,4 hPa 0,0 l/m 11,3 km/h (2 Bft) SW 225 0 min 1,4 UV-I 5,6 C 14,4 C 16,9 km/h (3 Bft)
05.04.2011 13:00 14,0 C 12,1 C 13,2 C 14,6 C 14,5 C 0,6 C 57 % 61 % 16 % 1024,4 hPa 0,0 l/m 10,8 km/h (2 Bft) SO 135 0 min 1,4 UV-I 5,6 C 14,5 C 7,7 km/h (2 Bft)
05.04.2011 13:10 14,2 C 12,2 C 13,5 C 14,8 C 14,7 C 0,6 C 57 % 60 % 16 % 1024,4 hPa 0,0 l/m 10,3 km/h (2 Bft) N 0 0 min 1,3 UV-I 5,8 C 14,7 C 15,4 km/h (3 Bft)
05.04.2011 13:15 14,2 C 12,2 C 13,7 C 14,8 C 14,5 C 0,6 C 55 % 56 % 16 % 1024,2 hPa 0,0 l/m 11,7 km/h (2 Bft) S-SW 202 0 min 1,4 UV-I 5,3 C 14,5 C 14,6 km/h (3 Bft)
05.04.2011 13:20 14,3 C 12,2 C 13,7 C 14,8 C 14,6 C 0,5 C 55 % 57 % 13 % 1024,2 hPa 0,0 l/m 12,4 km/h (3 Bft) SW 225 0 min 1,4 UV-I 5,4 C 14,6 C 12,7 km/h (3 Bft)
05.04.2011 13:25 14,4 C 12,2 C 14,3 C 15,2 C 15,3 C 0,8 C 56 % 57 % 21 % 1024,2 hPa 0,0 l/m 11,6 km/h (2 Bft) S 180 0 min 1,7 UV-I 5,7 C 15,3 C 10,8 km/h (2 Bft)
05.04.2011 13:30 14,4 C 12,3 C 14,4 C 15,7 C 15,8 C 1,3 C 54 % 56 % 34 % 1024,2 hPa 0,0 l/m 10,8 km/h (2 Bft) SW 225 0 min 1,7 UV-I 5,2 C 15,8 C 14,3 km/h (3 Bft)
05.04.2011 13:35 14,4 C 12,3 C 14,4 C 16,0 C 16,0 C 1,6 C 54 % 57 % 42 % 1024,3 hPa 0,0 l/m 10,5 km/h (2 Bft) SW 225 0 min 1,6 UV-I 5,2 C 16,0 C 10,6 km/h (2 Bft)
05.04.2011 13:40 14,6 C 12,3 C 14,6 C 16,0 C 16,0 C 1,4 C 55 % 56 % 37 % 1024,3 hPa 0,0 l/m 10,6 km/h (2 Bft) S 180 0 min 1,6 UV-I 5,7 C 16,0 C 13,0 km/h (3 Bft)
05.04.2011 13:45 14,6 C 12,3 C 14,4 C 16,0 C 15,9 C 1,4 C 53 % 54 % 37 % 1024,3 hPa 0,0 l/m 10,5 km/h (2 Bft) S 180 0 min 1,5 UV-I 5,1 C 15,9 C 15,0 km/h (3 Bft)
05.04.2011 13:50 14,4 C 12,3 C 14,3 C 15,6 C 15,3 C 1,2 C 52 % 53 % 32 % 1024,3 hPa 0,0 l/m 11,4 km/h (2 Bft) SW 225 0 min 1,5 UV-I 4,7 C 15,3 C 15,1 km/h (3 Bft)
05.04.2011 13:55 14,4 C 12,3 C 14,3 C 15,0 C 14,6 C 0,6 C 54 % 55 % 16 % 1024,1 hPa 0,0 l/m 12,4 km/h (3 Bft) SW 225 0 min 1,3 UV-I 5,2 C 14,6 C 13,8 km/h (3 Bft)
05.04.2011 14:00 14,6 C 12,3 C 14,4 C 14,9 C 14,9 C 0,3 C 53 % 56 % 8 % 1024,1 hPa 0,0 l/m 10,8 km/h (2 Bft) SW 225 0 min 1,3 UV-I 5,1 C 14,9 C 8,9 km/h (2 Bft)
05.04.2011 14:10 14,7 C 12,4 C 14,1 C 14,9 C 14,8 C 0,2 C 52 % 52 % 5 % 1024,1 hPa 0,0 l/m 9,5 km/h (2 Bft) N 0 0 min 1,1 UV-I 5,0 C 14,8 C 14,0 km/h (3 Bft)
05.04.2011 14:15 14,8 C 12,4 C 14,4 C 14,9 C 14,7 C 0,1 C 51 % 53 % 3 % 1023,8 hPa 0,0 l/m 10,0 km/h (2 Bft) W-SW 247 0 min 1,0 UV-I 4,8 C 14,7 C 12,1 km/h (2 Bft)
05.04.2011 14:20 14,8 C 12,4 C 14,7 C 14,9 C 14,8 C 0,1 C 50 % 50 % 3 % 1023,8 hPa 0,0 l/m 11,1 km/h (2 Bft) SW 225 0 min 1,0 UV-I 4,5 C 14,8 C 16,6 km/h (3 Bft)
05.04.2011 14:25 14,9 C 12,5 C 15,5 C 15,4 C 15,5 C 0,5 C 50 % 50 % 13 % 1023,8 hPa 0,0 l/m 11,3 km/h (2 Bft) S 180 0 min 1,6 UV-I 4,6 C 15,5 C 12,2 km/h (2 Bft)
05.04.2011 14:30 15,1 C 12,5 C 15,6 C 15,9 C 16,1 C 0,8 C 49 % 49 % 21 % 1023,8 hPa 0,0 l/m 9,7 km/h (2 Bft) SW 225 0 min 1,6 UV-I 4,5 C 16,1 C 10,5 km/h (2 Bft)
05.04.2011 14:35 15,0 C 12,5 C 15,1 C 15,9 C 15,7 C 0,9 C 50 % 50 % 24 % 1023,7 hPa 0,0 l/m 8,7 km/h (2 Bft) O-SO 112 0 min 1,1 UV-I 4,7 C 15,7 C 4,7 km/h (1 Bft)
05.04.2011 14:40 14,8 C 12,5 C 14,9 C 15,7 C 15,7 C 0,9 C 48 % 50 % 24 % 1023,7 hPa 0,0 l/m 7,9 km/h (2 Bft) S-SW 202 0 min 1,1 UV-I 3,9 C 15,7 C 9,7 km/h (2 Bft)
05.04.2011 14:45 15,0 C 12,5 C 14,9 C 15,8 C 15,8 C 0,8 C 48 % 50 % 21 % 1023,7 hPa 0,0 l/m 5,1 km/h (1 Bft) S 180 0 min 1,1 UV-I 4,1 C 15,8 C 8,9 km/h (2 Bft)
05.04.2011 14:50 15,1 C 12,6 C 15,4 C 16,1 C 16,1 C 1,0 C 50 % 51 % 26 % 1023,7 hPa 0,0 l/m 6,6 km/h (2 Bft) S 180 0 min 1,1 UV-I 4,8 C 16,1 C 9,0 km/h (2 Bft)
05.04.2011 14:55 15,3 C 12,6 C 15,5 C 16,1 C 16,0 C 0,8 C 48 % 47 % 21 % 1024,1 hPa 0,0 l/m 10,3 km/h (2 Bft) S 180 0 min 1,3 UV-I 4,4 C 16,0 C 13,8 km/h (3 Bft)
05.04.2011 15:00 15,2 C 12,6 C 15,5 C 16,0 C 15,8 C 0,8 C 46 % 48 % 21 % 1024,1 hPa 0,0 l/m 10,8 km/h (2 Bft) S-SW 202 0 min 1,3 UV-I 3,7 C 15,8 C 9,0 km/h (2 Bft)
05.04.2011 15:10 15,0 C 12,6 C 14,7 C 15,5 C 15,1 C 0,5 C 46 % 48 % 13 % 1024,1 hPa 0,0 l/m 10,5 km/h (2 Bft) N 0 0 min 0,9 UV-I 3,5 C 15,1 C 17,5 km/h (3 Bft)
05.04.2011 15:15 15,1 C 12,6 C 14,7 C 15,1 C 15,1 C 0,0 C 44 % 46 % 0 % 1022,9 hPa 0,0 l/m 9,0 km/h (2 Bft) W-SW 247 0 min 0,8 UV-I 2,9 C 15,1 C 11,6 km/h (2 Bft)
05.04.2011 15:20 15,1 C 12,7 C 14,6 C 15,3 C 15,3 C 0,2 C 44 % 45 % 5 % 1022,9 hPa 0,0 l/m 8,5 km/h (2 Bft) W-NW 292 0 min 0,8 UV-I 2,9 C 15,3 C 9,0 km/h (2 Bft)
05.04.2011 15:25 15,0 C 12,7 C 14,6 C 15,3 C 15,2 C 0,3 C 45 % 46 % 8 % 1022,9 hPa 0,0 l/m 8,9 km/h (2 Bft) SW 225 0 min 0,7 UV-I 3,2 C 15,2 C 16,4 km/h (3 Bft)
05.04.2011 15:30 15,0 C 12,7 C 14,4 C 15,2 C 15,1 C 0,2 C 46 % 48 % 5 % 1022,9 hPa 0,0 l/m 8,2 km/h (2 Bft) W-SW 247 0 min 0,7 UV-I 3,5 C 15,1 C 3,4 km/h (1 Bft)
05.04.2011 15:35 14,8 C 12,7 C 14,3 C 15,2 C 15,2 C 0,4 C 47 % 49 % 11 % 1022,9 hPa 0,0 l/m 6,8 km/h (2 Bft) W 270 0 min 0,6 UV-I 3,6 C 15,2 C 8,9 km/h (2 Bft)
05.04.2011 15:40 14,8 C 12,7 C 14,3 C 15,0 C 15,0 C 0,2 C 48 % 50 % 5 % 1022,9 hPa 0,0 l/m 6,8 km/h (2 Bft) S 180 0 min 0,6 UV-I 3,9 C 15,0 C 11,9 km/h (2 Bft)
05.04.2011 15:45 14,8 C 12,7 C 14,1 C 14,9 C 14,7 C 0,1 C 48 % 51 % 3 % 1022,9 hPa 0,0 l/m 8,0 km/h (2 Bft) S-SO 157 0 min 0,5 UV-I 3,9 C 14,7 C 3,4 km/h (1 Bft)
05.04.2011 15:50 14,8 C 12,7 C 14,3 C 15,0 C 15,0 C 0,2 C 49 % 51 % 5 % 1022,9 hPa 0,0 l/m 6,1 km/h (2 Bft) SW 225 0 min 0,5 UV-I 4,2 C 15,0 C 9,7 km/h (2 Bft)
05.04.2011 15:55 14,9 C 12,8 C 14,3 C 15,1 C 15,1 C 0,2 C 50 % 54 % 5 % 1022,4 hPa 0,0 l/m 5,6 km/h (1 Bft) SW 225 0 min 0,6 UV-I 4,6 C 15,1 C 7,6 km/h (2 Bft)
05.04.2011 16:00 14,9 C 12,8 C 14,3 C 15,0 C 14,9 C 0,1 C 49 % 52 % 3 % 1022,4 hPa 0,0 l/m 8,2 km/h (2 Bft) W-SW 247 0 min 0,6 UV-I 4,3 C 14,9 C 12,2 km/h (2 Bft)
05.04.2011 16:10 15,1 C 12,8 C 14,1 C 15,0 C 14,7 C 0,0 C 50 % 52 % 0 % 1022,4 hPa 0,0 l/m 9,7 km/h (2 Bft) N 0 0 min 0,5 UV-I 4,8 C 14,7 C 10,0 km/h (2 Bft)
05.04.2011 16:15 14,9 C 12,8 C 14,0 C 14,9 C 14,8 C 0,0 C 50 % 53 % 0 % 1023,1 hPa 0,0 l/m 8,0 km/h (2 Bft) SW 225 0 min 0,4 UV-I 4,6 C 14,8 C 6,6 km/h (2 Bft)
05.04.2011 16:20 15,0 C 12,8 C 14,0 C 14,9 C 14,8 C 0,0 C 50 % 52 % 0 % 1023,1 hPa 0,0 l/m 8,9 km/h (2 Bft) SW 225 0 min 0,4 UV-I 4,7 C 14,8 C 12,2 km/h (2 Bft)
05.04.2011 16:25 15,1 C 12,8 C 14,1 C 15,0 C 14,7 C 0,0 C 49 % 53 % 0 % 1023,1 hPa 0,0 l/m 9,3 km/h (2 Bft) SW 225 0 min 0,4 UV-I 4,5 C 14,7 C 12,2 km/h (2 Bft)
05.04.2011 16:28 15,1 C 12,8 C 14,1 C 13,4 C 14,7 C 0,0 C 49 % 53 % 0 % 1023,1 hPa 0,0 l/m 9,3 km/h (2 Bft) SW 225 0 min 0,4 UV-I 4,5 C 14,7 C 12,2 km/h (2 Bft)
05.04.2011 16:30 15,1 C 12,9 C 14,3 C 15,1 C 15,1 C 0,0 C 50 % 53 % 0 % 1023,1 hPa 0,0 l/m 8,5 km/h (2 Bft) SW 225 0 min 0,4 UV-I 4,8 C 15,1 C 7,6 km/h (2 Bft)
05.04.2011 16:35 15,2 C 12,9 C 14,5 C 15,3 C 15,3 C 0,1 C 48 % 50 % 3 % 1022,8 hPa 0,0 l/m 8,4 km/h (2 Bft) SW 225 0 min 0,5 UV-I 4,3 C 15,3 C 9,5 km/h (2 Bft)
05.04.2011 16:40 15,1 C 12,9 C 14,5 C 15,3 C 15,3 C 0,2 C 49 % 51 % 5 % 1022,8 hPa 0,0 l/m 8,0 km/h (2 Bft) W 270 0 min 0,5 UV-I 4,5 C 15,3 C 6,6 km/h (2 Bft)
05.04.2011 16:45 15,1 C 12,9 C 14,5 C 15,2 C 15,0 C 0,1 C 48 % 48 % 3 % 1022,8 hPa 0,0 l/m 9,3 km/h (2 Bft) SW 225 0 min 0,5 UV-I 4,2 C 15,0 C 13,8 km/h (3 Bft)
05.04.2011 16:50 15,1 C 12,9 C 14,5 C 15,1 C 14,8 C 0,0 C 48 % 49 % 0 % 1022,8 hPa 0,0 l/m 10,3 km/h (2 Bft) S-SW 202 0 min 0,5 UV-I 4,2 C 14,8 C 11,6 km/h (2 Bft)
05.04.2011 16:55 15,1 C 12,9 C 14,8 C 15,1 C 15,1 C 0,0 C 49 % 50 % 0 % 1023,4 hPa 0,0 l/m 9,8 km/h (2 Bft) S-SW 202 0 min 0,4 UV-I 4,5 C 15,1 C 8,0 km/h (2 Bft)
05.04.2011 17:00 15,2 C 12,9 C 14,9 C 15,3 C 15,3 C 0,1 C 49 % 50 % 3 % 1023,4 hPa 0,0 l/m 8,9 km/h (2 Bft) SW 225 0 min 0,4 UV-I 4,6 C 15,3 C 7,7 km/h (2 Bft)
05.04.2011 17:10 15,3 C 12,9 C 14,8 C 15,5 C 15,6 C 0,2 C 48 % 49 % 5 % 1023,4 hPa 0,0 l/m 9,0 km/h (2 Bft) N 0 0 min 0,4 UV-I 4,4 C 15,6 C 13,5 km/h (3 Bft)
05.04.2011 17:15 15,3 C 12,9 C 14,9 C 15,6 C 15,5 C 0,3 C 48 % 50 % 8 % 1022,9 hPa 0,0 l/m 9,7 km/h (2 Bft) SW 225 0 min 0,3 UV-I 4,4 C 15,5 C 11,1 km/h (2 Bft)
05.04.2011 17:20 15,3 C 13,0 C 14,8 C 15,6 C 15,6 C 0,3 C 49 % 51 % 8 % 1022,9 hPa 0,0 l/m 9,0 km/h (2 Bft) SW 225 0 min 0,3 UV-I 4,7 C 15,6 C 10,1 km/h (2 Bft)
05.04.2011 17:25 15,2 C 13,0 C 14,7 C 15,6 C 15,6 C 0,4 C 51 % 53 % 11 % 1022,9 hPa 0,0 l/m 7,6 km/h (2 Bft) SW 225 0 min 0,2 UV-I 5,1 C 15,6 C 8,4 km/h (2 Bft)
05.04.2011 17:30 15,2 C 13,0 C 14,6 C 15,5 C 15,5 C 0,3 C 51 % 53 % 8 % 1022,9 hPa 0,0 l/m 6,9 km/h (2 Bft) S-SW 202 0 min 0,2 UV-I 5,1 C 15,5 C 6,8 km/h (2 Bft)
05.04.2011 17:35 15,1 C 13,0 C 14,6 C 15,2 C 15,2 C 0,1 C 50 % 51 % 3 % 1023,4 hPa 0,0 l/m 7,6 km/h (2 Bft) S-SW 202 0 min 0,1 UV-I 4,8 C 15,2 C 8,2 km/h (2 Bft)
05.04.2011 17:40 15,1 C 13,0 C 14,5 C 15,2 C 15,2 C 0,1 C 50 % 52 % 3 % 1023,4 hPa 0,0 l/m 7,1 km/h (2 Bft) SW 225 0 min 0,1 UV-I 4,8 C 15,2 C 5,5 km/h (1 Bft)
05.04.2011 17:45 15,0 C 13,0 C 14,5 C 15,2 C 15,2 C 0,2 C 50 % 53 % 5 % 1023,4 hPa 0,0 l/m 5,3 km/h (1 Bft) W-SW 247 0 min 0,1 UV-I 4,7 C 15,2 C 4,5 km/h (1 Bft)
05.04.2011 17:50 15,0 C 13,0 C 14,5 C 15,3 C 15,3 C 0,3 C 50 % 52 % 8 % 1023,4 hPa 0,0 l/m 4,2 km/h (1 Bft) S-SW 202 0 min 0,1 UV-I 4,7 C 15,3 C 5,1 km/h (1 Bft)
05.04.2011 17:55 15,1 C 13,0 C 14,5 C 15,3 C 15,3 C 0,2 C 51 % 53 % 5 % 1023,3 hPa 0,0 l/m 4,2 km/h (1 Bft) W-SW 247 0 min 0,1 UV-I 5,0 C 15,3 C 2,9 km/h (1 Bft)
05.04.2011 18:00 15,0 C 13,0 C 14,6 C 15,4 C 15,4 C 0,4 C 52 % 53 % 11 % 1023,3 hPa 0,0 l/m 5,5 km/h (1 Bft) SW 225 0 min 0,1 UV-I 5,2 C 15,4 C 9,8 km/h (2 Bft)
05.04.2011 18:09 15,0 C 13,0 C 14,4 C 15,2 C 15,2 C 0,2 C 51 % 53 % 5 % 1023,3 hPa 0,0 l/m 7,1 km/h (2 Bft) N 0 0 min 0,1 UV-I 4,9 C 15,2 C 6,1 km/h (2 Bft)
05.04.2011 18:10 15,0 C 13,0 C 14,4 C 15,2 C 15,2 C 0,2 C 51 % 53 % 5 % 1023,3 hPa 0,0 l/m 7,1 km/h (2 Bft) W-SW 247 0 min 0,1 UV-I 4,9 C 15,2 C 6,1 km/h (2 Bft)
05.04.2011 18:15 14,9 C 13,0 C 14,4 C 15,0 C 15,0 C 0,1 C 50 % 53 % 3 % 1022,9 hPa 0,0 l/m 6,6 km/h (2 Bft) W-SW 247 0 min 0,0 UV-I 4,6 C 15,0 C 9,7 km/h (2 Bft)
05.04.2011 18:20 15,0 C 13,0 C 14,5 C 15,0 C 15,0 C 0,0 C 50 % 52 % 0 % 1022,9 hPa 0,0 l/m 5,3 km/h (1 Bft) W-SW 247 0 min 0,0 UV-I 4,7 C 15,0 C 5,3 km/h (1 Bft)
05.04.2011 18:25 14,9 C 13,0 C 14,4 C 15,1 C 15,1 C 0,2 C 51 % 54 % 5 % 1022,9 hPa 0,0 l/m 4,8 km/h (1 Bft) SW 225 0 min 0,0 UV-I 4,9 C 15,1 C 6,9 km/h (2 Bft)
05.04.2011 18:30 14,9 C 13,0 C 14,5 C 15,1 C 15,1 C 0,2 C 51 % 54 % 5 % 1022,9 hPa 0,0 l/m 4,0 km/h (1 Bft) S-SW 202 0 min 0,0 UV-I 4,9 C 15,1 C 2,1 km/h (1 Bft)
05.04.2011 18:35 14,9 C 13,1 C 14,2 C 15,0 C 15,0 C 0,1 C 52 % 55 % 3 % 1022,8 hPa 0,0 l/m 2,3 km/h (1 Bft) W 270 0 min 0,0 UV-I 5,1 C 15,0 C 3,5 km/h (1 Bft)
05.04.2011 18:40 14,6 C 13,1 C 14,2 C 14,8 C 14,8 C 0,2 C 52 % 55 % 5 % 1022,8 hPa 0,0 l/m 1,8 km/h (1 Bft) W 270 0 min 0,0 UV-I 4,9 C 14,8 C 6,9 km/h (2 Bft)
05.04.2011 18:45 14,5 C 13,1 C 14,0 C 14,5 C 14,5 C 0,0 C 51 % 53 % 0 % 1022,8 hPa 0,0 l/m 3,9 km/h (1 Bft) W-SW 247 0 min 0,0 UV-I 4,5 C 14,5 C 4,3 km/h (1 Bft)
05.04.2011 18:50 14,4 C 13,1 C 14,0 C 14,4 C 14,3 C 0,0 C 51 % 54 % 0 % 1022,8 hPa 0,0 l/m 4,0 km/h (1 Bft) SW 225 0 min 0,0 UV-I 4,4 C 14,3 C 10,0 km/h (2 Bft)
05.04.2011 18:55 14,4 C 13,1 C 13,9 C 14,4 C 14,3 C 0,0 C 52 % 54 % 0 % 1022,8 hPa 0,0 l/m 3,5 km/h (1 Bft) S 180 0 min 0,0 UV-I 4,7 C 14,3 C 5,5 km/h (1 Bft)
05.04.2011 19:00 14,4 C 13,1 C 13,9 C 14,3 C 14,2 C 0,0 C 52 % 54 % 0 % 1022,8 hPa 0,0 l/m 5,3 km/h (1 Bft) SW 225 0 min 0,0 UV-I 4,7 C 14,2 C 11,4 km/h (2 Bft)
05.04.2011 19:09 14,1 C 13,2 C 13,6 C 14,1 C 13,7 C 0,0 C 52 % 55 % 0 % 1022,8 hPa 0,0 l/m 8,0 km/h (2 Bft) N 0 0 min 0,0 UV-I 4,4 C 13,7 C 11,7 km/h (2 Bft)
05.04.2011 19:15 14,0 C 13,2 C 13,6 C 13,9 C 13,4 C 0,0 C 53 % 55 % 0 % 1022,6 hPa 0,0 l/m 9,2 km/h (2 Bft) SW 225 0 min 0,0 UV-I 4,6 C 13,4 C 13,4 km/h (3 Bft)
05.04.2011 19:20 14,0 C 13,2 C 13,5 C 13,8 C 13,2 C 0,0 C 54 % 55 % 0 % 1022,6 hPa 0,0 l/m 9,5 km/h (2 Bft) SW 225 0 min 0,0 UV-I 4,8 C 13,2 C 12,6 km/h (3 Bft)
05.04.2011 19:25 13,9 C 13,2 C 13,5 C 13,7 C 13,3 C 0,0 C 54 % 56 % 0 % 1022,6 hPa 0,0 l/m 8,5 km/h (2 Bft) SW 225 0 min 0,0 UV-I 4,7 C 13,3 C 8,5 km/h (2 Bft)
05.04.2011 19:30 13,9 C 13,2 C 13,3 C 13,7 C 13,2 C 0,0 C 55 % 56 % 0 % 1022,6 hPa 0,0 l/m 8,5 km/h (2 Bft) SW 225 0 min 0,0 UV-I 5,0 C 13,2 C 8,7 km/h (2 Bft)
05.04.2011 19:35 13,8 C 13,2 C 13,2 C 13,6 C 13,0 C 0,0 C 55 % 57 % 0 % 1023,3 hPa 0,0 l/m 8,7 km/h (2 Bft) SW 225 0 min 0,0 UV-I 4,9 C 13,0 C 8,9 km/h (2 Bft)
05.04.2011 19:40 13,7 C 13,2 C 13,1 C 13,5 C 12,7 C 0,0 C 56 % 59 % 0 % 1023,3 hPa 0,0 l/m 9,5 km/h (2 Bft) SW 225 0 min 0,0 UV-I 5,1 C 12,7 C 12,7 km/h (3 Bft)
05.04.2011 19:45 13,6 C 13,2 C 13,2 C 13,4 C 12,5 C 0,0 C 55 % 57 % 0 % 1023,3 hPa 0,0 l/m 11,4 km/h (2 Bft) S 180 0 min 0,0 UV-I 4,7 C 12,5 C 25,9 km/h (4 Bft)
05.04.2011 19:50 13,7 C 13,2 C 13,1 C 13,4 C 12,4 C 0,0 C 54 % 55 % 0 % 1023,3 hPa 0,0 l/m 12,1 km/h (2 Bft) S 180 0 min 0,0 UV-I 4,6 C 12,4 C 10,5 km/h (2 Bft)
05.04.2011 19:55 13,6 C 13,2 C 13,2 C 13,4 C 12,7 C 0,0 C 53 % 54 % 0 % 1023,8 hPa 0,0 l/m 10,5 km/h (2 Bft) SW 225 0 min 0,0 UV-I 4,2 C 12,7 C 7,4 km/h (2 Bft)
05.04.2011 20:00 13,5 C 13,2 C 13,1 C 13,2 C 12,7 C 0,0 C 52 % 52 % 0 % 1023,8 hPa 0,0 l/m 10,6 km/h (2 Bft) SW 225 0 min 0,0 UV-I 3,8 C 12,7 C 18,2 km/h (3 Bft)
05.04.2011 20:09 13,5 C 13,1 C 13,0 C 13,3 C 12,3 C 0,0 C 53 % 54 % 0 % 1023,8 hPa 0,0 l/m 12,7 km/h (3 Bft) N 0 0 min 0,0 UV-I 4,1 C 12,3 C 8,7 km/h (2 Bft)
05.04.2011 20:15 13,4 C 13,1 C 12,9 C 13,1 C 12,2 C 0,0 C 52 % 53 % 0 % 1023,4 hPa 0,0 l/m 12,1 km/h (2 Bft) S-SW 202 0 min 0,0 UV-I 3,7 C 12,2 C 13,0 km/h (3 Bft)
05.04.2011 20:20 13,3 C 13,1 C 12,9 C 13,1 C 12,3 C 0,0 C 52 % 53 % 0 % 1023,4 hPa 0,0 l/m 10,8 km/h (2 Bft) S-SW 202 0 min 0,0 UV-I 3,7 C 12,3 C 10,5 km/h (2 Bft)
05.04.2011 20:25 13,3 C 13,1 C 12,8 C 13,1 C 12,4 C 0,0 C 52 % 53 % 0 % 1023,4 hPa 0,0 l/m 9,5 km/h (2 Bft) S-SW 202 0 min 0,0 UV-I 3,7 C 12,4 C 11,3 km/h (2 Bft)
05.04.2011 20:30 13,2 C 13,1 C 12,8 C 13,0 C 12,2 C 0,0 C 52 % 54 % 0 % 1023,4 hPa 0,0 l/m 10,0 km/h (2 Bft) SW 225 0 min 0,0 UV-I 3,6 C 12,2 C 12,9 km/h (3 Bft)
05.04.2011 20:35 13,1 C 13,1 C 12,7 C 12,8 C 11,9 C 0,0 C 54 % 57 % 0 % 1024,1 hPa 0,0 l/m 10,8 km/h (2 Bft) SW 225 0 min 0,0 UV-I 4,0 C 11,9 C 13,2 km/h (3 Bft)
05.04.2011 20:40 13,0 C 13,1 C 12,5 C 12,7 C 11,7 C 0,0 C 56 % 58 % 0 % 1024,1 hPa 0,0 l/m 9,8 km/h (2 Bft) W-SW 247 0 min 0,0 UV-I 4,4 C 11,7 C 12,4 km/h (3 Bft)
05.04.2011 20:45 12,8 C 13,1 C 12,4 C 12,5 C 11,6 C 0,0 C 57 % 59 % 0 % 1024,1 hPa 0,0 l/m 8,5 km/h (2 Bft) SW 225 0 min 0,0 UV-I 4,5 C 11,6 C 7,2 km/h (2 Bft)
05.04.2011 20:50 12,8 C 13,1 C 12,3 C 12,5 C 11,7 C 0,0 C 57 % 59 % 0 % 1024,1 hPa 0,0 l/m 8,7 km/h (2 Bft) SW 225 0 min 0,0 UV-I 4,5 C 11,7 C 11,1 km/h (2 Bft)
05.04.2011 20:55 12,8 C 13,1 C 12,3 C 12,5 C 11,8 C 0,0 C 57 % 60 % 0 % 1023,8 hPa 0,0 l/m 7,9 km/h (2 Bft) S-SW 202 0 min 0,0 UV-I 4,5 C 11,8 C 6,4 km/h (2 Bft)
05.04.2011 21:00 12,7 C 13,1 C 12,3 C 12,4 C 11,9 C 0,0 C 57 % 60 % 0 % 1023,8 hPa 0,0 l/m 7,1 km/h (2 Bft) SW 225 0 min 0,0 UV-I 4,4 C 11,9 C 7,4 km/h (2 Bft)
05.04.2011 21:09 12,7 C 13,1 C 12,3 C 12,5 C 12,1 C 0,0 C 58 % 60 % 0 % 1023,8 hPa 0,0 l/m 7,2 km/h (2 Bft) N 0 0 min 0,0 UV-I 4,7 C 12,1 C 6,3 km/h (2 Bft)
05.04.2011 21:10 12,7 C 13,1 C 12,3 C 12,5 C 12,1 C 0,0 C 58 % 60 % 0 % 1023,8 hPa 0,0 l/m 7,2 km/h (2 Bft) SW 225 0 min 0,0 UV-I 4,7 C 12,1 C 6,3 km/h (2 Bft)
05.04.2011 21:15 12,7 C 13,1 C 12,0 C 12,4 C 11,9 C 0,0 C 58 % 60 % 0 % 1023,8 hPa 0,0 l/m 7,1 km/h (2 Bft) SW 225 0 min 0,0 UV-I 4,7 C 11,9 C 13,4 km/h (3 Bft)
05.04.2011 21:20 12,6 C 13,1 C 12,1 C 12,4 C 11,8 C 0,0 C 58 % 60 % 0 % 1023,8 hPa 0,0 l/m 7,7 km/h (2 Bft) SW 225 0 min 0,0 UV-I 4,6 C 11,8 C 9,5 km/h (2 Bft)
05.04.2011 21:25 12,7 C 13,1 C 12,1 C 12,5 C 11,7 C 0,0 C 59 % 61 % 0 % 1023,8 hPa 0,0 l/m 8,5 km/h (2 Bft) SW 225 0 min 0,0 UV-I 4,9 C 11,7 C 6,0 km/h (2 Bft)
05.04.2011 21:30 12,6 C 13,1 C 12,1 C 12,4 C 11,9 C 0,0 C 59 % 62 % 0 % 1023,8 hPa 0,0 l/m 6,6 km/h (2 Bft) SW 225 0 min 0,0 UV-I 4,8 C 11,9 C 3,9 km/h (1 Bft)
05.04.2011 21:35 12,5 C 13,1 C 11,8 C 12,3 C 12,0 C 0,0 C 60 % 63 % 0 % 1024,4 hPa 0,0 l/m 4,5 km/h (1 Bft) W-SW 247 0 min 0,0 UV-I 5,0 C 12,0 C 5,8 km/h (2 Bft)
05.04.2011 21:40 12,4 C 13,1 C 11,7 C 12,2 C 11,8 C 0,0 C 60 % 64 % 0 % 1024,4 hPa 0,0 l/m 4,2 km/h (1 Bft) SW 225 0 min 0,0 UV-I 4,9 C 11,8 C 4,2 km/h (1 Bft)
05.04.2011 21:45 12,5 C 13,1 C 11,6 C 12,2 C 11,7 C 0,0 C 60 % 64 % 0 % 1024,4 hPa 0,0 l/m 4,3 km/h (1 Bft) W-SW 247 0 min 0,0 UV-I 5,0 C 11,7 C 5,5 km/h (1 Bft)
05.04.2011 21:50 12,4 C 13,0 C 11,7 C 12,2 C 11,8 C 0,0 C 60 % 64 % 0 % 1024,4 hPa 0,0 l/m 5,0 km/h (1 Bft) SW 225 0 min 0,0 UV-I 4,9 C 11,8 C 5,0 km/h (1 Bft)
05.04.2011 21:55 12,3 C 13,0 C 11,6 C 12,1 C 11,7 C 0,0 C 60 % 64 % 0 % 1024,7 hPa 0,0 l/m 5,3 km/h (1 Bft) SW 225 0 min 0,0 UV-I 4,8 C 11,7 C 3,2 km/h (1 Bft)
05.04.2011 22:00 12,3 C 13,0 C 11,6 C 12,1 C 11,8 C 0,0 C 60 % 64 % 0 % 1024,7 hPa 0,0 l/m 4,7 km/h (1 Bft) SW 225 0 min 0,0 UV-I 4,8 C 11,8 C 5,1 km/h (1 Bft)
05.04.2011 22:10 12,3 C 13,0 C 11,6 C 12,1 C 11,8 C 0,0 C 61 % 64 % 0 % 1024,7 hPa 0,0 l/m 3,2 km/h (1 Bft) N 0 0 min 0,0 UV-I 5,0 C 11,8 C 2,1 km/h (1 Bft)
05.04.2011 22:15 12,3 C 13,0 C 11,5 C 12,1 C 11,8 C 0,0 C 61 % 64 % 0 % 1025,1 hPa 0,0 l/m 2,3 km/h (1 Bft) SW 225 0 min 0,0 UV-I 5,0 C 11,8 C 3,1 km/h (1 Bft)
05.04.2011 22:20 12,2 C 13,0 C 11,5 C 12,0 C 11,7 C 0,0 C 60 % 64 % 0 % 1025,1 hPa 0,0 l/m 1,8 km/h (1 Bft) SW 225 0 min 0,0 UV-I 4,7 C 11,7 C 3,9 km/h (1 Bft)
05.04.2011 22:25 12,2 C 13,0 C 11,5 C 12,1 C 11,8 C 0,0 C 60 % 64 % 0 % 1025,1 hPa 0,0 l/m 3,4 km/h (1 Bft) SW 225 0 min 0,0 UV-I 4,7 C 11,8 C 4,0 km/h (1 Bft)
05.04.2011 22:30 12,1 C 13,0 C 11,5 C 12,0 C 11,8 C 0,0 C 60 % 64 % 0 % 1025,1 hPa 0,0 l/m 4,5 km/h (1 Bft) S 180 0 min 0,0 UV-I 4,6 C 11,8 C 5,5 km/h (1 Bft)
05.04.2011 22:35 12,2 C 13,0 C 11,5 C 12,1 C 11,9 C 0,0 C 60 % 64 % 0 % 1024,4 hPa 0,0 l/m 4,3 km/h (1 Bft) S-SW 202 0 min 0,0 UV-I 4,7 C 11,9 C 4,3 km/h (1 Bft)
05.04.2011 22:40 12,1 C 13,0 C 11,5 C 12,0 C 11,9 C 0,0 C 60 % 64 % 0 % 1024,4 hPa 0,0 l/m 3,4 km/h (1 Bft) SW 225 0 min 0,0 UV-I 4,6 C 11,9 C 3,2 km/h (1 Bft)
05.04.2011 22:45 12,1 C 13,0 C 11,5 C 12,0 C 11,8 C 0,0 C 59 % 64 % 0 % 1024,4 hPa 0,0 l/m 1,3 km/h (1 Bft) NW 315 0 min 0,0 UV-I 4,3 C 11,8 C 2,1 km/h (1 Bft)
05.04.2011 22:50 12,1 C 13,0 C 11,5 C 12,0 C 11,8 C 0,0 C 59 % 63 % 0 % 1024,4 hPa 0,0 l/m 1,0 km/h (0 Bft) S-SW 202 0 min 0,0 UV-I 4,3 C 11,8 C 2,7 km/h (1 Bft)
05.04.2011 22:55 12,1 C 13,0 C 11,6 C 12,0 C 11,8 C 0,0 C 60 % 63 % 0 % 1024,2 hPa 0,0 l/m 1,1 km/h (1 Bft) SO 135 0 min 0,0 UV-I 4,6 C 11,8 C 2,4 km/h (1 Bft)
05.04.2011 23:00 12,0 C 13,0 C 11,5 C 11,9 C 11,7 C 0,0 C 60 % 63 % 0 % 1024,2 hPa 0,0 l/m 0,6 km/h (0 Bft) S-SO 157 0 min 0,0 UV-I 4,5 C 11,7 C 2,6 km/h (1 Bft)
05.04.2011 23:09 12,0 C 13,0 C 11,4 C 11,9 C 11,6 C 0,0 C 61 % 64 % 0 % 1024,2 hPa 0,0 l/m 1,1 km/h (1 Bft) N 0 0 min 0,0 UV-I 4,7 C 11,6 C 0,0 km/h (0 Bft)
05.04.2011 23:15 11,9 C 12,9 C 11,5 C 11,8 C 11,5 C 0,0 C 62 % 64 % 0 % 1024,4 hPa 0,0 l/m 1,1 km/h (1 Bft) O 90 0 min 0,0 UV-I 4,9 C 11,5 C 2,4 km/h (1 Bft)
05.04.2011 23:20 11,9 C 12,9 C 11,5 C 11,7 C 11,4 C 0,0 C 62 % 65 % 0 % 1024,4 hPa 0,0 l/m 1,6 km/h (1 Bft) SW 225 0 min 0,0 UV-I 4,9 C 11,4 C 3,5 km/h (1 Bft)
05.04.2011 23:25 11,9 C 12,9 C 11,5 C 11,7 C 11,4 C 0,0 C 63 % 65 % 0 % 1024,4 hPa 0,0 l/m 1,6 km/h (1 Bft) S 180 0 min 0,0 UV-I 5,1 C 11,4 C 0,0 km/h (0 Bft)
05.04.2011 23:30 11,8 C 12,9 C 11,3 C 11,7 C 11,4 C 0,0 C 63 % 66 % 0 % 1024,4 hPa 0,0 l/m 1,0 km/h (0 Bft) S 180 0 min 0,0 UV-I 5,0 C 11,4 C 0,0 km/h (0 Bft)
05.04.2011 23:35 11,9 C 12,9 C 11,3 C 11,7 C 11,4 C 0,0 C 64 % 66 % 0 % 1024,4 hPa 0,0 l/m 2,1 km/h (1 Bft) S-SW 202 0 min 0,0 UV-I 5,3 C 11,4 C 6,1 km/h (2 Bft)
05.04.2011 23:40 11,9 C 12,9 C 11,2 C 11,7 C 11,4 C 0,0 C 64 % 67 % 0 % 1024,4 hPa 0,0 l/m 3,1 km/h (1 Bft) W 270 0 min 0,0 UV-I 5,3 C 11,4 C 2,1 km/h (1 Bft)
05.04.2011 23:45 11,8 C 12,9 C 11,1 C 11,6 C 11,3 C 0,0 C 64 % 67 % 0 % 1024,4 hPa 0,0 l/m 2,7 km/h (1 Bft) W-SW 247 0 min 0,0 UV-I 5,2 C 11,3 C 2,4 km/h (1 Bft)
05.04.2011 23:50 11,8 C 12,9 C 11,1 C 11,6 C 11,3 C 0,0 C 64 % 68 % 0 % 1024,4 hPa 0,0 l/m 2,7 km/h (1 Bft) SW 225 0 min 0,0 UV-I 5,2 C 11,3 C 3,2 km/h (1 Bft)
05.04.2011 23:55 11,7 C 12,9 C 11,2 C 11,6 C 11,3 C 0,0 C 64 % 67 % 0 % 1024,6 hPa 0,0 l/m 3,4 km/h (1 Bft) SW 225 0 min 0,0 UV-I 5,1 C 11,3 C 2,4 km/h (1 Bft)
_ Min-Zeit 06:25 08:55 06:45 06:30 06:30 00:00 15:15 15:20 00:00 00:15 - 01:15 - - - 00:00 15:15 06:30 00:55
Minimum _ 6,4 C 11,7 C 5,4 C 5,6 C 4,1 C 0,0 C 44 % 45 % 0 % 1021,9 hPa - 0,0 km/h (0 Bft) - - - 0,0 UV-I 2,9 C 4,1 C 0,0 km/h (0 Bft)
_ Max-Zeit 14:55 19:09 14:30 14:50 14:30 08:50 06:35 03:09 08:50 12:15 00:00 12:15 - - 09:10 13:25 11:30 14:30 19:45
Maximum _ 15,3 C 13,2 C 15,6 C 16,1 C 16,1 C 3,9 C 86 % 89 % 100 % 1025,6 hPa 0,0 l/m 14,6 km/h
SW (3 Bft)
- - 10 min 1,7 UV-I 7,6 C 16,1 C 25,9 km/h
S (4 Bft)
Durchschnitt _ 11,3 C 12,6 C 10,5 C 11,4 C 10,8 C 0,4 C 68 % 71 % 9 % 1023,6 hPa #0,0 l/m 5,1 km/h (1 Bft) SW - #40 min. 0,8 UV-I 5,1 C 10,8 C 6,3 km/h (2 Bft)
2013 www.wetterstation-wechselburg.de